This demonstration page uses our WeatherBlox Daily Observations layout. Learn more.

39.92423, -83.80882

Hourly Observations for May 24, 2015

Temp ( °F °C ) Dew Point ( °F °C ) Humidity (%) Winds ( mph kmh ) Pressure ( in mb ) Visibility ( mi km ) Precip ( " mm )
12:56 am 00:56 Clear 62 16.6 47 8.3 58 58 SSE 5 7 30.29 1026 7 11.26538 0 0
1:56 am 01:56 Hazy 52 11.1 47 8.3 83 83 E 5 7 30.29 1026 6 9.65604 0 0
2:56 am 02:56 Hazy 52 11.1 47 8.3 83 83 ESE 5 7 30.28 1026 6 9.65604 0 0
3:56 am 03:56 Clear with Mist and Fog 50 10 47 8.3 89 89 E 5 7 30.29 1026 6 9.65604 0 0
4:56 am 04:56 Clear with Mist and Fog 50 10 46 7.7 86 86 ESE 6 9 30.29 1026 6 9.65604 0 0
5:56 am 05:56 Clear with Mist and Fog 50 10 46 7.7 86 86 ESE 6 9 30.3 1026 6 9.65604 0 0
6:56 am 06:56 Hazy 56 13.3 47 8.3 72 72 SE 6 9 30.3 1026 5 8.0467 0 0
7:56 am 07:56 Hazy 64 17.7 49 9.4 58 58 SE 7 11 30.3 1026 5 8.0467 0 0
8:56 am 08:56 Hazy 70 21.1 50 10 49 49 SSE 9 15 30.29 1026 5 8.0467 0 0
9:56 am 09:56 Hazy 74 23.3 52 11.1 46 46 VRB 7 11 30.3 1026 6 9.65604 0 0
10:56 am 10:56 Hazy 77 25 53 11.6 43 43 SSW 10 17 30.29 1026 5 8.0467 0 0
11:56 am 11:56 Hazy 79 26.1 53 11.6 40 40 SW 14 22 30.28 1025 5 8.0467 0 0
12:56 pm 12:56 Hazy 80 26.6 54 12.2 41 41 SW 6 9 30.25 1025 5 8.0467 0 0
1:56 pm 13:56 Hazy 81 27.2 54 12.2 39 39 SW 9 15 30.24 1024 5 8.0467 0 0
2:56 pm 14:56 Hazy 82 27.7 55 12.7 40 40 SSW 7 11 30.21 1023 5 8.0467 0 0
3:56 pm 15:56 Hazy 84 28.8 52 11.1 33 33 SSW 12 19 30.19 1022 5 8.0467 0 0
4:56 pm 16:56 Hazy 84 28.8 52 11.1 33 33 SSW 12 19 30.17 1022 6 9.65604 0 0
5:56 pm 17:56 Hazy 85 29.4 51 10.5 31 31 S 13 20 30.16 1021 5 8.0467 0 0
6:56 pm 18:56 Hazy 83 28.3 50 10 32 32 S 13 20 30.13 1020 5 8.0467 0 0
7:56 pm 19:56 Hazy 80 26.6 51 10.5 36 36 S 7 11 30.12 1020 5 8.0467 0 0
8:56 pm 20:56 Hazy 76 24.4 51 10.5 42 42 S 5 7 30.13 1020 5 8.0467 0 0
9:56 pm 21:56 Clear 72 22.2 52 11.1 50 50 SSE 7 11 30.14 1021 7 11.26538 0 0
10:56 pm 22:56 Clear 71 21.6 53 11.6 53 53 SSE 7 11 30.14 1021 7 11.26538 0 0
11:56 pm 23:56 Clear 69 20.5 54 12.2 59 59 SSE 8 13 30.13 1020 7 11.26538 0 0

Powered by AerisWeather